Preview of NWS' New Version of Forecast
This preview is not operational and should not be used for support decisions.

Regional Weather Roundup (RWR)

Issued by Gray - Portland, ME (GYX)

                            
000
ASUS41 KGYX 240305
RWRGYX
WEATHER ROUNDUP FOR MAINE AND NEW HAMPSHIRE
NATIONAL WEATHER SERVICE GRAY ME
1100 PM EDT SAT MAR 23 2019

MEZ002-005-006-010-012-015-018-020-021-024-026-027-029-240400-
MAINE
  
CITY           SKY/WX    TMP DP  RH WIND       PRES   REMARKS
PORTLAND       FAIR      33  11  39 NW16G23   29.86R                  
SANFORD        FAIR      32  14  47 W13G23    29.87R                  
BAR HARBOR     FAIR      32  18  56 NW10      29.73R                  
WISCASSET      FAIR      30  14  51 VRB5      29.84R                  
ROCKLAND       FAIR      31  18  58 W15       29.77R                  
FRYEBURG       FAIR      32   8  36 W21G33    29.85S WCI  20          
LEWISTONAUBURN FAIR      31  13  47 CALM      29.85R                  
AUGUSTA        FAIR      29  12  49 W12       29.80R WCI  19          
WATERVILLE     FAIR      30  13  49 NW16G23   29.77R WCI  19          
BANGOR         FAIR      31  18  58 W9        29.74R                  
GREENVILLE       N/A     24  12  60 NW24G37   29.67R WCI   8          
MILLINOCKET    NOT AVBL                                               
HOULTON        FAIR      34  23  64 NW10G26   29.59R                  
PRESQUE ISLE   FAIR     N/A N/A N/A W13       29.61R                  
FRENCHVILLE    FAIR      29  16  58 NW17      29.57R WCI  17          
CARIBOU        FAIR      31  15  52 W9G20     29.58R                  
$$

NHZ002-005-008-009-011-012-014-240400-
NEW HAMPSHIRE
  
CITY           SKY/WX    TMP DP  RH WIND       PRES   REMARKS
PORTSMOUTH     PTCLDY    34   8  33 W15G28    29.89R                  
ROCHESTER      FAIR      33  10  38 W15G29    29.88R                  
NASHUA         FAIR      35  10  35 W15       29.96                   
MANCHESTER     FAIR      35  10  35 NW13G18   29.93R                  
CONCORD        FAIR      32  16  51 VRB5      29.94R                  
LACONIA        FAIR      31  12  45 W9        29.92R                  
PLYMOUTH       FAIR      29  13  52 W9        29.94R                  
BERLIN         FAIR      25   9  50 NW9G18    29.86S                  
WHITEFIELD     FAIR      20  12  71 VRB3      29.92S                  
JAFFREY        FAIR      32  10  40 NW10G24   29.93R                  
KEENE          FAIR      31  14  49 W5        30.00R                  
LEBANON        FAIR      30  13  49 W6        29.97R                  
MT WASHINGTON  PTCLDY     3  -2  78 NW76G91     N/A  WCI -31          
$$

VTZ005-007-008-240400-
VERMONT
  
CITY           SKY/WX    TMP DP  RH WIND       PRES   REMARKS
ST JOHNSBURY     N/A     19  15  84 MISG      29.93S                  
MONTPELIER     FAIR      18  15  88 CALM      29.98R                  
BURLINGTON     FAIR      26  13  57 S5        29.99S                  
$$

MAZ007-012-024-CTZ003-RIZ002-NYZ038-NYZ072-240400-
SOUTHERN NEW ENGLAND AND NY
  
CITY           SKY/WX    TMP DP  RH WIND       PRES   REMARKS
BOSTON         FAIR      38  16  40 W17       29.93R                  
WORCESTER      FAIR      29  13  51 W17G29    29.94R WCI  17          
NANTUCKET      FAIR      37  20  50 W18G30    29.93R                  
PROVIDENCE     FAIR      34  14  43 W14       29.99R                  
HARTFORD       FAIR      32  12  43 NW8       30.06R                  
ALBANY         FAIR      33  12  41 MISG      30.10S                  
NEW YORK CITY  FAIR      42  12  29 NW17G24   30.13R                  
$$

ANZ081-ANZ082-ANZ150-NHZ014-MEZ023>029-240400-
COASTAL MARINE OBSERVATIONS
  
STATION/POSITION TIME  TEMP    WIND        PRES    WAVE
                       AIR SEA DIR/SP/G            HT/PER
                 (UTC) (F)     (DEG/KT/KT) (MB)    (FT/S)
MOUNT DESERT ROC 0200   37     270/ 19/ 24 1006.1R
MATINICUS ROCK   0200   34     290/ 27/ 30 1006.7R
ISLE OF SHOALS   0200   36     290/ 37/ 43 1009.1R
JEFFREYS LEDGE   0208      39                N/A     7/ 6
$$

.............KEY..............
   WCI - WIND CHILL
   TC  - TEMPERATURE IN CELSIUS
   VSB - VISIBILITY IN MILES
   HX  - HEAT INDEX
   FAIR- INDICATES FEW OR NO CLOUDS BELOW 12,000 FT, WITH NO 
         SIGNIFICANT WEATHER AND/OR OBSTRUCTIONS TO VISIBILITY.